• en France
  • Liste des pays
  • À 7 jours
  • Température de l'eau
  • Carte satellitaire
  • Carte météo
  • Widgets météo
  • user-avatar
    Se connecter

    Météo par heure à Heredia

    Ce jour, 19 Février, Lundi

    Heure Température Précipitation Vent Pression Humidité
    00:00 +16°C° 0 mm 2 m/s 663 mmHg 81%
    01:00 +16°C° 0 mm 2 m/s 662 mmHg 79%
    02:00 +16°C° 0 mm 2 m/s 662 mmHg 78%
    03:00 +16°C° 0 mm 2 m/s 662 mmHg 76%
    04:00 +16°C° 0 mm 2 m/s 662 mmHg 75%
    05:00 +16°C° 0 mm 2 m/s 662 mmHg 75%
    06:00 +16°C° 0 mm 2 m/s 662 mmHg 75%
    07:00 +18°C° 0 mm 2 m/s 663 mmHg 67%
    08:00 +21°C° 0 mm 2 m/s 664 mmHg 60%
    09:00 +24°C° 0 mm 2 m/s 665 mmHg 52%
    10:00 +26°C° 0 mm 2 m/s 665 mmHg 49%
    11:00 +27°C° 0 mm 3 m/s 665 mmHg 46%
    12:00 +29°C° 0 mm 3 m/s 665 mmHg 42%
    13:00 +28°C° 0 mm 3 m/s 665 mmHg 45%
    14:00 +27°C° 0 mm 3 m/s 664 mmHg 47%
    15:00 +27°C° 0 mm 3 m/s 664 mmHg 49%
    16:00 +24°C° 0 mm 2 m/s 663 mmHg 60%
    17:00 +21°C° 0 mm 2 m/s 663 mmHg 72%
    18:00 +20°C° 0 mm 1 m/s 662 mmHg 83%
    19:00 +19°C° 0 mm 1 m/s 662 mmHg 83%
    20:00 +19°C° 0 mm 1 m/s 663 mmHg 83%
    21:00 +17°C° 0 mm 2 m/s 663 mmHg 84%
    22:00 +17°C° 0 mm 2 m/s 663 mmHg 82%
    23:00 +17°C° 0 mm 2 m/s 663 mmHg 81%

    Demain, 20 Février, Mardi

    Heure Température Précipitation Vent Pression Humidité
    00:00 +16°C° 0 mm 2 m/s 663 mmHg 79%
    01:00 +16°C° 0 mm 2 m/s 663 mmHg 80%
    02:00 +16°C° 0 mm 2 m/s 662 mmHg 80%
    03:00 +16°C° 0 mm 2 m/s 662 mmHg 80%
    04:00 +16°C° 0 mm 2 m/s 662 mmHg 80%
    05:00 +16°C° 0 mm 2 m/s 662 mmHg 79%
    06:00 +16°C° 0 mm 2 m/s 663 mmHg 79%
    07:00 +18°C° 0 mm 2 m/s 664 mmHg 70%
    08:00 +21°C° 0 mm 2 m/s 665 mmHg 61%
    09:00 +24°C° 0 mm 2 m/s 666 mmHg 52%
    10:00 +26°C° 0 mm 2 m/s 666 mmHg 48%
    11:00 +27°C° 0 mm 3 m/s 666 mmHg 45%
    12:00 +28°C° 0 mm 3 m/s 666 mmHg 41%
    13:00 +28°C° 0 mm 3 m/s 665 mmHg 45%
    14:00 +27°C° 0 mm 3 m/s 665 mmHg 48%
    15:00 +26°C° 0 mm 2 m/s 664 mmHg 52%
    16:00 +24°C° 0 mm 2 m/s 664 mmHg 63%
    17:00 +22°C° 0 mm 1 m/s 663 mmHg 74%
    18:00 +20°C° 0 mm 1 m/s 663 mmHg 84%
    19:00 +19°C° 0 mm 1 m/s 663 mmHg 84%
    20:00 +19°C° 0 mm 1 m/s 664 mmHg 84%
    21:00 +17°C° 0 mm 2 m/s 664 mmHg 83%
    22:00 +17°C° 0 mm 2 m/s 664 mmHg 83%
    23:00 +17°C° 0 mm 2 m/s 664 mmHg 82%

    Après-demain, 21 Février, Mercredi

    Heure Température Précipitation Vent Pression Humidité
    00:00 +17°C° 0 mm 2 m/s 664 mmHg 82%
    01:00 +18°C° 0 mm 1 m/s 663 mmHg 82%
    02:00 +18°C° 0 mm 1 m/s 663 mmHg 82%
    03:00 +18°C° 0 mm 1 m/s 663 mmHg 81%
    04:00 +18°C° 0 mm 1 m/s 663 mmHg 81%
    05:00 +18°C° 0 mm 1 m/s 663 mmHg 82%
    06:00 +18°C° 0 mm 1 m/s 663 mmHg 82%
    07:00 +19°C° 0 mm 2 m/s 664 mmHg 74%
    08:00 +21°C° 0 mm 2 m/s 665 mmHg 66%
    09:00 +24°C° 0 mm 2 m/s 666 mmHg 59%
    10:00 +25°C° 0 mm 2 m/s 666 mmHg 56%
    11:00 +26°C° 0 mm 2 m/s 666 mmHg 54%
    12:00 +27°C° 0 mm 2 m/s 666 mmHg 51%
    13:00 +26°C° 0,2 mm 2 m/s 665 mmHg 57%
    14:00 +25°C° 0,2 mm 2 m/s 664 mmHg 62%
    15:00 +24°C° 0,2 mm 2 m/s 664 mmHg 67%
    16:00 +21°C° 0,2 mm 2 m/s 663 mmHg 74%
    17:00 +21°C° 0,2 mm 1 m/s 663 mmHg 81%
    18:00 +20°C° 0,2 mm 1 m/s 663 mmHg 87%
    19:00 +19°C° 0,1 mm 1 m/s 663 mmHg 87%
    20:00 +19°C° 0,1 mm 1 m/s 664 mmHg 87%
    21:00 +18°C° 0,1 mm 1 m/s 664 mmHg 87%
    22:00 +18°C° 0,1 mm 1 m/s 664 mmHg 87%
    23:00 +18°C° 0,1 mm 1 m/s 664 mmHg 86%

    22 Février, Jeudi

    Heure Température Précipitation Vent Pression Humidité
    00:00 +18°C° 0,1 mm 1 m/s 664 mmHg 85%
    01:00 +18°C° 0 mm 1 m/s 664 mmHg 85%
    02:00 +18°C° 0 mm 1 m/s 663 mmHg 86%
    03:00 +18°C° 0 mm 1 m/s 663 mmHg 86%
    04:00 +18°C° 0 mm 1 m/s 663 mmHg 85%
    05:00 +18°C° 0 mm 1 m/s 663 mmHg 84%
    06:00 +17°C° 0 mm 2 m/s 664 mmHg 83%
    07:00 +19°C° 0 mm 2 m/s 665 mmHg 75%
    08:00 +21°C° 0 mm 2 m/s 666 mmHg 66%
    09:00 +24°C° 0 mm 2 m/s 667 mmHg 58%
    10:00 +25°C° 0 mm 2 m/s 666 mmHg 55%
    11:00 +26°C° 0 mm 3 m/s 666 mmHg 51%
    12:00 +28°C° 0 mm 3 m/s 666 mmHg 48%
    13:00 +27°C° 0,1 mm 3 m/s 665 mmHg 51%
    14:00 +26°C° 0,1 mm 2 m/s 665 mmHg 54%
    15:00 +25°C° 0,1 mm 2 m/s 664 mmHg 56%
    16:00 +23°C° 0,2 mm 2 m/s 663 mmHg 64%
    17:00 +20°C° 0,2 mm 2 m/s 663 mmHg 72%
    18:00 +19°C° 0,2 mm 1 m/s 663 mmHg 80%
    19:00 +19°C° 0 mm 1 m/s 663 mmHg 80%
    20:00 +18°C° 0 mm 1 m/s 664 mmHg 79%
    21:00 +16°C° 0 mm 2 m/s 664 mmHg 78%
    22:00 +16°C° 0 mm 2 m/s 664 mmHg 78%
    23:00 +16°C° 0 mm 2 m/s 663 mmHg 78%

    23 Février, Vendredi

    Heure Température Précipitation Vent Pression Humidité
    00:00 +16°C° 0 mm 2 m/s 663 mmHg 78%
    01:00 +16°C° 0 mm 2 m/s 663 mmHg 78%
    02:00 +17°C° 0 mm 2 m/s 663 mmHg 79%
    03:00 +17°C° 0 mm 2 m/s 662 mmHg 79%
    04:00 +17°C° 0 mm 2 m/s 663 mmHg 80%
    05:00 +17°C° 0 mm 2 m/s 663 mmHg 81%
    06:00 +17°C° 0 mm 2 m/s 663 mmHg 82%
    07:00 +19°C° 0 mm 2 m/s 664 mmHg 72%
    08:00 +21°C° 0 mm 2 m/s 665 mmHg 61%
    09:00 +25°C° 0 mm 2 m/s 666 mmHg 50%
    10:00 +26°C° 0 mm 2 m/s 666 mmHg 46%
    11:00 +27°C° 0 mm 3 m/s 666 mmHg 43%
    12:00 +29°C° 0 mm 3 m/s 666 mmHg 39%
    13:00 +28°C° 0 mm 3 m/s 665 mmHg 42%
    14:00 +27°C° 0 mm 3 m/s 664 mmHg 44%
    15:00 +26°C° 0 mm 3 m/s 664 mmHg 47%
    16:00 +24°C° 0 mm 2 m/s 663 mmHg 58%
    17:00 +21°C° 0 mm 2 m/s 663 mmHg 70%
    18:00 +19°C° 0 mm 1 m/s 663 mmHg 81%
    19:00 +19°C° 0 mm 1 m/s 663 mmHg 82%
    20:00 +18°C° 0 mm 1 m/s 663 mmHg 83%
    21:00 +16°C° 0 mm 1 m/s 663 mmHg 84%
    22:00 +16°C° 0 mm 1 m/s 663 mmHg 80%
    23:00 +16°C° 0 mm 1 m/s 663 mmHg 77%

    24 Février, Samedi

    Heure Température Précipitation Vent Pression Humidité
    00:00 +16°C° 0 mm 1 m/s 663 mmHg 74%
    01:00 +16°C° 0 mm 1 m/s 662 mmHg 74%
    02:00 +15°C° 0 mm 1 m/s 662 mmHg 75%
    03:00 +15°C° 0 mm 1 m/s 662 mmHg 75%
    04:00 +15°C° 0 mm 1 m/s 662 mmHg 76%
    05:00 +16°C° 0 mm 1 m/s 662 mmHg 78%
    06:00 +16°C° 0 mm 1 m/s 663 mmHg 79%
    07:00 +19°C° 0 mm 1 m/s 664 mmHg 70%
    08:00 +22°C° 0 mm 1 m/s 665 mmHg 62%
    09:00 +25°C° 0 mm 2 m/s 666 mmHg 53%
    10:00 +25°C° 0,1 mm 2 m/s 666 mmHg 52%
    11:00 +26°C° 0,1 mm 2 m/s 665 mmHg 50%
    12:00 +26°C° 0,1 mm 2 m/s 665 mmHg 49%
    13:00 +26°C° 0,2 mm 2 m/s 665 mmHg 52%
    14:00 +25°C° 0,2 mm 2 m/s 664 mmHg 56%
    15:00 +25°C° 0,2 mm 2 m/s 663 mmHg 59%
    16:00 +23°C° 0,2 mm 2 m/s 663 mmHg 67%
    17:00 +21°C° 0,2 mm 1 m/s 663 mmHg 75%
    18:00 +19°C° 0,2 mm 1 m/s 663 mmHg 83%
    19:00 +19°C° 0 mm 1 m/s 663 mmHg 85%
    20:00 +18°C° 0 mm 1 m/s 663 mmHg 87%
    21:00 +18°C° 0 mm 1 m/s 663 mmHg 89%
    22:00 +16°C° 0 mm 1 m/s 663 mmHg 88%
    23:00 +16°C° 0 mm 1 m/s 663 mmHg 87%
    Voir plus